#timestamp,LO_Frequency,Hit,StdDev 
1618221615.0,286046999.0,N
1618221615.9,286046999.0,N
1618221635.8,286047000.3,N
1618221655.6,286047002.2,N
1618221675.4,286047001.2,N
1618221695.3,286046999.0,N
1618221715.1,286047000.0,N
1618221735.8,286046999.8,N
1618221755.7,286047002.8,N
1618221775.5,286047005.4,Y
1618221795.4,286047006.0,P
1618221815.2,286047001.6,N
1618221835.0,286047004.3,N
1618221835.9,286047004.3,N
1618221855.8,286047002.1,N
1618221875.6,286047003.4,N
1618221895.5,286047000.2,N
1618221915.3,286047000.0,N
1618221935.1,286046998.2,N
1618221955.9,286046998.7,N
1618221975.7,286047001.7,N
1618221995.5,286047002.0,N
1618222015.4,286047000.0,N
1618222035.2,286046998.1,N
1618222055.1,286047000.4,N
1618222056.0,286047000.4,N
1618222075.8,286046998.6,N
1618222095.6,286047000.3,N
1618222115.5,286047000.0,N
1618222135.3,286047002.7,N
1618222155.1,286047000.8,N
1618222175.9,286046994.9,N
1618222195.7,286046995.2,N
1618222215.6,286046997.3,N
1618222235.4,286046998.4,N
1618222255.2,286046997.3,N
1618222275.1,286046994.9,N
1618222276.0,286046994.9,N
1618222295.8,286046998.7,N
1618222315.7,286046997.1,N
1618222335.5,286046999.3,N
1618222355.3,286046999.1,N
1618222375.2,286046994.9,N
1618222395.0,286046997.3,N
1618222395.9,286046997.3,N
1618222415.8,286046996.6,N
1618222435.6,286046998.6,N
1618222455.4,286047000.9,N
1618222475.3,286047000.5,N
1618222495.1,286047000.5,N
1618222515.8,286046999.8,N
1618222535.7,286047002.4,N
1618222555.5,286047001.7,N
1618222575.4,286047004.2,N
1618222595.2,286047003.6,N
1618222615.0,286047005.9,N
1618222615.9,286047005.9,N
1618222635.8,286047003.2,N
1618222655.6,286047001.8,N
1618222675.4,286047000.6,N
1618222695.3,286047000.6,N
1618222715.1,286047000.7,N
1618222735.9,286046999.4,N
1618222755.7,286047001.2,N
1618222775.5,286047002.7,N
1618222795.4,286047006.0,N
1618222815.2,286047006.0,N
1618222835.0,286047002.9,N
1618222835.9,286047002.9,N
1618222855.8,286047001.5,N
1618222875.6,286047003.2,N
1618222895.5,286047003.5,N
1618222915.3,286047005.3,N
1618222935.1,286047003.4,N
1618222955.9,286046999.9,N
1618222975.7,286047000.3,N
1618222995.5,286047000.7,N
1618223015.4,286047000.8,N
1618223035.2,286047002.7,N
1618223055.0,286047000.1,N
1618223056.0,286047000.1,N
1618223075.8,286047002.7,N
1618223095.6,286046998.2,N
1618223115.5,286047001.7,N
1618223135.3,286047003.6,N
1618223155.1,286047001.9,N
1618223175.9,286047002.1,N
1618223195.7,286047000.6,N
1618223215.6,286046998.8,N
1618223235.4,286046998.1,N
1618223255.2,286047001.1,N
1618223275.1,286046998.7,N
1618223276.0,286046998.7,N
1618223295.8,286046999.5,N
1618223315.6,286046998.0,N
1618223335.5,286046997.3,N
1618223355.3,286046997.6,N
1618223375.2,286046998.5,N
1618223395.9,286047000.9,N
1618223415.7,286046998.8,N
1618223435.6,286046999.6,N
1618223455.4,286046998.8,N
1618223475.2,286046999.5,N
1618223495.1,286046999.5,N
1618223496.0,286046999.5,N
1618223515.8,286046998.4,N
1618223535.7,286047000.2,N
1618223555.5,286046999.8,N
1618223575.3,286047000.7,N
1618223595.2,286046998.8,N
1618223615.9,286046998.2,N
1618223635.7,286046998.5,N
1618223655.6,286046998.2,N
1618223675.4,286047000.5,N
1618223695.3,286047002.8,N
1618223715.1,286047003.7,N
1618223716.0,286047003.7,N
1618223735.8,286047003.9,N
1618223755.7,286047002.0,N
1618223775.5,286047002.0,N
1618223795.4,286046999.7,N
1618223815.2,286047004.3,N
1618223835.0,286047002.7,N
1618223835.9,286047002.7,N
1618223855.8,286047002.6,N
1618223875.6,286047003.7,N
1618223895.4,286047003.4,N
1618223915.3,286047007.1,Y
1618223935.1,286047005.6,P
1618223955.9,286047003.3,N
1618223975.8,286047005.9,P
1618223995.7,286047002.9,N
1618224015.5,286047004.3,N
1618224035.3,286047002.8,N
1618224055.2,286047005.7,Y
1618224075.0,286047002.0,P
1618224075.9,286047002.0,N
1618224095.8,286046999.9,N
1618224115.6,286046999.6,N
1618224135.4,286046999.3,N
1618224155.3,286046997.4,N
1618224175.1,286046997.7,N
1618224195.8,286046999.6,N
1618224215.7,286046996.9,N
1618224235.5,286047000.9,N
1618224255.4,286046998.7,N
1618224275.2,286047000.6,N
1618224295.0,286047000.3,N
1618224295.9,286047000.3,N
1618224315.8,286047000.6,N
1618224335.6,286046998.3,N
1618224355.4,286047000.3,N
1618224375.3,286046998.2,N
1618224395.1,286046997.4,N
1618224415.9,286046995.0,N
1618224435.7,286046994.9,N
1618224455.5,286046999.3,N
1618224475.4,286046998.0,N
1618224495.2,286046995.9,N
1618224515.0,286046995.6,N
1618224515.9,286046995.6,N
1618224535.8,286046997.5,N
1618224555.6,286046998.7,N
1618224575.5,286046998.9,N
1618224595.3,286046996.5,N
1618224615.1,286046996.5,N
1618224635.9,286046996.5,N
1618224655.7,286046997.1,N
1618224675.5,286046998.9,N
1618224695.4,286046999.1,N
1618224715.2,286046998.3,N
1618224735.1,286046998.7,N
1618224736.0,286046998.7,N
1618224755.8,286047001.2,N
1618224775.6,286046999.0,N
1618224795.5,286046997.0,N
1618224815.3,286046994.9,N
1618224835.1,286046997.8,N
1618224855.9,286046999.3,N
1618224875.7,286046997.5,N
1618224895.6,286046997.1,N
1618224915.4,286046997.1,N
1618224935.2,286046997.9,N
1618224955.1,286046996.2,N
1618224956.0,286046996.2,N
1618224975.8,286046995.0,Y
1618224995.6,286046998.2,P
1618225015.5,286046996.5,P
1618225035.3,286046999.5,N
1618225055.2,286046999.1,N
1618225075.9,286046999.4,N
1618225095.7,286046997.3,N
1618225115.6,286046995.4,Y
1618225135.4,286046998.6,P
1618225155.3,286046999.6,N
1618225175.1,286046997.3,P
1618225176.0,286046997.3,Y
1618225195.8,286046998.5,P
